Location: Champs
(48.8539°N, 2.6040°E)
Time: 21:57:53
(UTC+00:00)

SPOT 1 Rocket Y - Pass Details

Date: 24 August 2022
Orbit: 784 x 832 km, 98.5° (Epoch: 06 October)

Event Time Altitude Azimuth Distance (km) Brightness Sun altitude
Exits shadow 19:14:53 - 132° (SE) 2,903 7.9 -5.0°
Reaches altitude 10° 19:16:18 10° 126° (SE) 2,385 7.4 -5.2°
Maximum altitude 19:21:00 34° 64° (ENE) 1,325 6.4 -5.9°
Drops below altitude 10° 19:25:46 10° 1° (N) 2,427 8.4 -6.6°
Sets 19:28:19 0° 353° (N) 3,370 9.3 -7.0°
